GRUS-1E

Last updated on Thu Apr 22 2021 00:02:03 GMT+0000 (Coordinated Universal Time)

1 47935U 21022D 21111.55300133 .00000918 00000-0 92163-4 0 9994 2 47935 97.7291 15.1104 0020834 136.6900 223.5953 14.93540385 4510
UTC large
Height (km)
Speed (km/s)
/
Latitude / Longitude
Inclination (degrees)
Orbital Period (minutes)
Azimuth
Elevation
Range (km)
Doppler Factor

Next 0 passes for location: London (51.5072 / 0.1276)

Sorry there are no passes over London.